STARLINK-11396, 62015

Orbit data source: Space-Track

STARLINK-11396, 62015 is a payload satellite owned by SpaceX/Seattle (US) in LEO that was launched on Mon, 18 Nov 2024 UTC via an FALCON 9 launch vehicle from the Air Force Western Test Range (AFWTR). Payload-class satellites include a variety of spacecraft equipped with specific instruments for various scientific and technological missions. These include communications satellites like Starlink; space stations such as the ISS; scientific satellites like the Hubble; Earth observation satellites from companies like Planet Labs, Umbra, and HawkEye 360; GPS; miniature CubeSats for education and research; and military/defense satellites.

Loading next visibility...
Identifier
62015, 2024-213H
Orbit
LEO
Last TLE update
13 hours ago
Origin
Manufacturer
SpaceX/Seattle
Mission
Operational Commercial Communications
Bus & Motor
STARLINK V2M, Unknown motor
Mass
730 kg wet, ~700 kg dry
Launch date (UTC)
2024-11-18 (8 months ago)
Launch vehicle
FALCON 9
Launch site
Air Force Western Test Range (AFWTR)
Object type
Payload
Rocket body
Debris
Shape & HBR
Box + 2 Pan, 29 m
Radar Cross Section
36.964 m², Large (>1 m²)

Expand to show TLE details & history

TLE from 13 hours ago
0 STARLINK-11396
1 62015U 24213H   25186.36852737  .00247042  00000-0  19829-2 0  9999
2 62015  53.1562 180.2376 0001414  80.3784 279.7393 15.69721356 36076
Epoch: 2025-07-05T08:50Z
TLE epoch observation values (Epoch: 2025-07-05T08:50:40.764Z)
Latitude
-0.00008°
Longitude
123.96012°
Altitude
360.448 km
Speed
7.694 km/s
True Right ascension
12h 00m 57s
True Declination
0° 00' 00"
Sunlit
Object was in daylight at epoch
Visualization orbit readout
Latitude
50.50736°
Longitude
-173.91473°
Altitude
363.967 km
Speed
7.698 km/s
Apparent Right ascension
18h 56m 13s
Apparent Declination
8° 46' 17"
Sunlit
Object is in daylight
Visualization observer readout
Local Sidereal Time
09:18:57
Azimuth
42.368° NE
Elevation
-31.188°
Doppler factor
1
Orbital elements
Apogee altitude
360.908 km
Perigee altitude
359.003 km
Semi-major axis
6,738.093 km
Eccentricity
0.00014
Inclination
53.1562°
RAAN
180.2376°
Arg. of periapsis
80.3784°
True anomaly
Unknown
Mean anomaly
279.7393°
Eccentric anomaly
Unknown
Mean motion
3.92408 °/min
Orbital period
91.74 mins
BSTAR
0.0019829
Loading maneuver chart data...
Loading SW <> Apogee altitude chart data...
Loading historical data...
Loading historical data...
Loading historical data...
Loading historical data...
Loading historical data...
Loading historical data...
Loading historical data...

STARLINK-11396 Visibility forecast

Observer location: undefined°, undefined°

Span
Click to sort rows by Start time (UTC) header in descending order
Start Az.
Max El. time (UTC)
Max El. Az.
Max El.
End time (UTC)
End Az.
5 mins2025-07-06 01:48:56.913Z199.489° SSW2025-07-06 01:50:56.913Z156.61° SSE27.775°2025-07-06 01:53:56.913Z68.182° E
|